Location: Haram ta Haram Freeway
(35.0583°N, 51.4202°E)
Time: 21:30:31
(UTC+04:30)

Tiangong - Pass Details

Date: 09 August 2021
Orbit: 380 x 386 km, 41.5° (Epoch: 18 September)

Event Time Altitude Azimuth Distance (km) Brightness Sun altitude
Exits shadow 05:15:06 20° 270° (W) 958 2.6 -12.8°
Maximum altitude 05:17:02 51° 340° (NNW) 499 1.6 -12.5°
Drops below altitude 10° 05:20:14 10° 58° (ENE) 1,447 5.5 -11.9°
Sets 05:22:19 0° 64° (ENE) 2,291 7.2 -11.5°
